Location: Asheville, NC
(35.6000°N, 82.5500°W)
Time: 15:59:56
(UTC-04:00)

Vanguard 2 Rocket - Pass Details

Date: 07 December 2017
Orbit: 553 x 3328 km, 32.9° (Epoch: 22 June)

Event Time Altitude Azimuth Distance (km) Brightness Sun altitude
Rises 23:27:48 0° 264° (W) 6,501 11.4 -72.5°
Reaches altitude 10° 23:31:40 10° 264° (W) 5,738 11.0 -73.1°
Enters shadow 23:34:46 19° 263° (W) 5,159 10.7 -73.5°
Maximum altitude 23:51:03 83° 180° (S) 3,345 - -75.5°
Drops below altitude 10° 00:09:58 10° 96° (E) 5,621 - -76.9°
Sets 00:13:42 0° 96° (E) 6,370 - -77.0°
